Orbital Elements
Epoch 2018 Jan. 2.0 TT = JDT 2458120.5
T 2017 Dec. 17.73696 TT Williams
q 4.2667852 (2000.0) P Q
z -0.0001222 Peri. 179.63927 +0.95388002 +0.22988422
+/-0.0000003 Node 197.19417 +0.27375592 -0.40230252
e 1.0005216 Incl. 139.22912 +0.12316899 -0.88617489
From 2071 observations 2015 Nov. 2-2019 June 11, mean residual 0".5.
|